x

Pi-745 Tabs K (42045) Weather Station

6:00pm - Fri 17th Aug 2018 All times are CDT. -5 hours from GMT.

  • Wind
    13mph, 16mph gusts
  • Sea Temp 86°f
  • Air Temp 83°f
  • Sea Pressure 1016.6mb
  • Pi-745 Tabs K
  • Pi-745 Tabs K

More Historic Weather Station data

Upgrade to MSW Pro to gain access to the past 30 days of data for over 8000 Wavebouys and Weather Stations around the globe.

Join

Comparision Forecast

View Surf forecast
   
Fri 08/17 6:00pm 13 16 mph 1016.6mb 86f 83f
4:00pm 11 13 mph 1017.1mb 86f 83f
3:00pm 11 13 mph 1017.5mb 86f 83f
2:00pm 11 13 mph 1017.8mb 86f 83f
1:00pm 9 11 mph 1018mb 85f 83f
12:00pm 9 11 mph 1018.3mb 85f 83f
11:00am 11 13 mph 1018.3mb 85f 83f
9:00am 11 13 mph 1018mb 85f 82f
6:00am 11 13 mph 1017.2mb 85f 82f
5:00am 11 13 mph 1017.4mb 85f 82f
3:00am 13 16 mph 1017.4mb 85f 82f
2:00am 13 16 mph 1017.5mb 85f 82f
1:00am 16 18 mph 1017.7mb 85f 82f
12:00am 13 16 mph 1018.1mb 85f 82f
Thu 08/16 6:00pm 18 20 mph 1016.5mb 85f 83f
5:00pm 16 20 mph 1016.7mb 85f 83f
4:00pm 16 20 mph 1017.1mb 85f 83f
3:00pm 16 18 mph 1017.2mb 85f 83f
2:00pm 16 18 mph 1017.6mb 85f 83f
1:00pm 13 16 mph 1017.8mb 85f 83f
12:00pm 13 18 mph 1017.9mb 85f 83f
11:00am 13 16 mph 1017.8mb 85f 83f
10:00am 13 16 mph 1017.4mb 85f 83f
9:00am 16 18 mph 1017.1mb 85f 83f
8:00am 13 18 mph 1016.3mb 85f 82f
7:00am 13 18 mph 1016mb 85f 82f
6:00am 16 20 mph 1015.4mb 85f 82f
5:00am 16 20 mph 1015mb 85f 82f
4:00am 18 20 mph 1014.9mb 85f 82f
3:00am 18 20 mph 1015.1mb 85f 82f
2:00am 18 20 mph 1015.4mb 85f 82f
1:00am 18 22 mph 1015.5mb 85f 82f
Wed 08/15 11:00pm 18 20 mph 1015.2mb 85f 82f
6:00pm 16 18 mph 1014mb 85f 83f
1:00pm 16 18 mph 1015.5mb 85f 83f
11:00am 16 18 mph 1015.8mb 85f 83f
10:00am 16 18 mph 1015.8mb 85f 83f
6:00am 16 20 mph 1013.8mb 85f 82f
3:00am 16 18 mph 1014.2mb 85f 82f
Tue 08/14 11:00pm 16 20 mph 1014.3mb 85f 82f
2:00pm 16 18 mph 1014.9mb 85f 83f
11:00am 16 18 mph 1015.5mb 85f 83f
10:00am 16 18 mph 1015mb 85f 82f
9:00am 16 20 mph 1014.6mb 85f 82f
8:00am 16 18 mph 1014.3mb 85f 82f
4:00am 16 20 mph 1014.2mb 85f 81f
3:00am 16 18 mph 1014.6mb 85f 81f